CW1309 Weather Reports


Display with metric or nautical units.
time (UTC)temp
F
wind
direction
speed
MPH
gust
MPH
rain 1hr
in
rain 24hr
in
rain mn
in
humidity
%
barometer
mb
20260507224535 68 53 7.0 13.0 0.00 0.00 0.00 81 1016.2
20260507223032 67 38 6.0 12.0 0.00 0.00 0.00 81 1016.6
20260507221533 68 5 8.0 13.0 0.00 0.00 0.00 82 1016.6
20260507220030 68 17 7.0 15.0 0.00 0.00 0.00 82 1016.3
20260507214629 68 15 8.0 15.0 0.00 0.00 0.00 82 1016.1
20260507211506 68 9 9.0 13.0 0.00 0.00 0.00 83 1016.6
20260507210014 68 350 9.0 14.0 0.00 0.00 0.00 83 1016.6
20260507204504 67 5 6.0 13.0 0.00 0.00 0.00 84 1016.5
20260507203103 67 70 5.0 14.0 0.00 0.00 0.00 84 1016.4
20260507201606 66 48 7.0 14.0 0.00 0.00 0.00 85 1016.6
20260507200057 65 27 7.0 12.0 0.00 0.00 0.00 86 1016.8
20260507194633 65 80 6.0 12.0 0.00 0.00 0.00 86 1016.8
20260507193054 65 77 6.0 12.0 0.00 0.00 0.00 87 1017.1
20260507191554 65 17 6.0 12.0 0.00 0.00 0.00 88 1017.7
20260507190052 65 360 5.0 12.0 0.00 0.00 0.00 86 1018.5
20260507184558 65 5 4.0 12.0 0.00 0.00 0.00 86 1017.8
20260507183047 64 22 5.0 11.0 0.00 0.00 0.00 87 1017.8
20260507181546 63 46 6.0 11.0 0.00 0.00 0.00 88 1017.9
20260507180045 63 19 5.0 16.0 0.00 0.00 0.00 89 1018.0
20260507174548 63 68 7.0 12.0 0.00 0.00 0.00 86 1018.4
20260507173043 63 74 7.0 14.0 0.00 0.00 0.00 87 1018.7
20260507171549 62 360 6.0 15.0 0.00 0.00 0.00 87 1019.1
20260507170041 62 25 5.0 17.0 0.00 0.00 0.00 89 1019.0
20260507164541 63 5 8.0 13.0 0.00 0.00 0.00 90 1019.0
20260507163038 62 24 10.0 15.0 0.00 0.00 0.00 91 1018.6
20260507161542 62 24 6.0 17.0 0.00 0.00 0.00 92 1018.8
20260507160037 62 340 9.0 16.0 0.00 0.00 0.00 92 1018.8
20260507154536 62 355 9.0 14.0 0.00 0.00 0.00 92 1018.8
20260507151532 61 345 8.0 16.0 0.00 0.00 0.00 93 1018.6
20260507150031 61 347 10.0 17.0 0.00 0.00 0.00 93 1018.6
20260507144528 61 333 8.0 16.0 0.00 0.00 0.00 94 1018.4
20260507143027 61 336 11.0 18.0 0.00 0.00 0.00 94 1018.1
20260507141523 60 40 11.0 19.0 0.00 0.00 0.00 94 1017.8
20260507140021 60 27 8.0 14.0 0.00 0.00 0.00 95 1018.3
20260507134519 60 27 4.0 17.0 0.00 0.00 0.00 95 1018.2
20260507133019 60 42 6.0 12.0 0.00 0.00 0.00 96 1018.2
20260507131519 60 355 6.0 13.0 0.00 0.00 0.00 96 1018.1
20260507130022 60 11 9.0 18.0 0.00 0.00 0.00 95 1018.2
20260507124519 60 49 10.0 16.0 0.00 0.00 0.00 94 1018.1
20260507123010 60 346 8.0 12.0 0.00 0.00 0.00 94 1017.9
20260507121509 60 355 10.0 20.0 0.00 0.00 0.00 94 1017.6
20260507120008 60 355 11.0 20.0 0.00 0.00 0.00 94 1017.1
20260507114502 61 11 8.0 21.0 0.00 0.00 0.00 93 1016.8
20260507113102 61 34 9.0 13.0 0.00 0.00 0.00 92 1016.6
20260507111557 61 28 12.0 22.0 0.00 0.00 0.00 92 1016.3
20260507110054 62 5 8.0 19.0 0.00 0.00 0.00 91 1016.0
20260507104552 62 32 8.0 17.0 0.00 0.00 0.00 91 1016.1
20260507103050 62 325 10.0 16.0 0.00 0.00 0.00 90 1016.2
20260507101552 62 336 8.0 13.0 0.00 0.00 0.00 91 1015.8
20260507100048 62 360 9.0 15.0 0.00 0.00 0.00 90 1015.8
20260507094544 63 332 7.0 12.0 0.00 0.00 0.00 90 1015.7
20260507093049 63 22 5.0 12.0 0.00 0.00 0.00 90 1015.8
20260507091540 63 9 5.0 12.0 0.00 0.00 0.00 90 1015.7
20260507090038 63 321 4.0 12.0 0.00 0.00 0.00 90 1015.9
20260507084538 63 16 7.0 11.0 0.00 0.00 0.00 90 1015.6
20260507083036 63 46 6.0 11.0 0.00 0.00 0.00 90 1015.4
20260507081637 63 12 5.0 11.0 0.00 0.00 0.00 90 1015.5
20260507080039 63 24 6.0 12.0 0.00 0.00 0.00 90 1015.4
20260507074532 63 28 6.0 14.0 0.00 0.00 0.00 90 1015.5
20260507073031 63 9 7.0 10.0 0.00 0.00 0.00 90 1015.5
20260507071557 63 5 5.0 10.0 0.00 0.00 0.00 89 1015.6
20260507070032 63 11 2.0 10.0 0.00 0.00 0.00 90 1015.7
20260507064530 63 29 4.0 10.0 0.00 0.00 0.00 89 1015.7
20260507063027 63 44 6.0 13.0 0.00 0.00 0.00 89 1015.7
20260507061525 63 26 9.0 15.0 0.00 0.00 0.00 89 1015.5
20260507060024 63 49 7.0 14.0 0.00 0.00 0.00 89 1015.1
20260507054521 63 355 6.0 13.0 0.00 0.00 0.00 89 1015.5
20260507053020 64 57 5.0 13.0 0.00 0.00 0.00 89 1015.5
20260507051528 64 360 5.0 17.0 0.00 0.00 0.00 89 1015.6
20260507050013 64 12 9.0 14.0 0.00 0.00 0.00 89 1015.7
20260507044510 64 5 6.0 18.0 0.00 0.00 0.00 90 1015.3
20260507043011 64 347 8.0 16.0 0.00 0.00 0.00 89 1015.2
20260507041506 64 5 9.0 16.0 0.00 0.00 0.00 89 1015.0
20260507040004 64 39 4.0 11.0 0.00 0.00 0.00 90 1015.0
20260507034505 64 19 6.0 12.0 0.00 0.00 0.00 90 1014.9
20260507033003 64 355 6.0 11.0 0.00 0.00 0.00 89 1015.0
20260507031559 64 21 6.0 12.0 0.00 0.00 0.00 89 1014.7
20260507030059 64 344 8.0 16.0 0.00 0.00 0.00 89 1014.7
20260507024604 64 355 6.0 14.0 0.00 0.00 0.00 89 1014.4
20260507023055 64 330 3.0 13.0 0.00 0.00 0.00 89 1014.1
20260507021554 64 5 6.0 12.0 0.00 0.00 0.00 89 1013.9
20260506231538 71 338 6.0 18.0 0.00 0.00 0.00 85 1011.6
20260506230037 71 336 12.0 22.0 0.00 0.00 0.00 85 1011.4